This demonstration page uses our WeatherBlox Daily Observations layout. Learn more.

Left ArrowRight Arrow

41.12389, -100.76542

Hourly Observations for March 19, 2018

Temp ( °F °C ) Dew Point ( °F °C ) Humidity (%) Winds ( mph kmh ) Pressure ( in mb ) Visibility ( mi km ) Precip ( " mm )
12:11 am 00:11 Cloudy with Mist and Fog 37 2.8 34 1.1 89 89 NE 8 13 29.88 1012 5 8 0.00 0.00
12:53 am 00:53 Cloudy 36 2.2 33 0.6 89 89 NNE 12 19 29.84 1010 8 13 0.00 0.00
1:53 am 01:53 Cloudy with Mist and Fog 36 2.2 33 0.6 89 89 NNE 10 17 29.85 1011 5 8 0.00 0.00
2:08 am 02:08 Cloudy with Mist and Fog 36 2.2 33 0.6 89 89 NNE 10 17 29.91 1013 6 10 0.00 0.00
2:35 am 02:35 Cloudy with Mist and Fog 36 2.2 33 0.6 89 89 NE 10 17 29.91 1013 6 10 0.00 0.00
2:53 am 02:53 Cloudy with Mist and Fog 36 2.2 33 0.6 89 89 NNE 13 20 29.86 1011 6 10 0.00 0.00
3:53 am 03:53 Cloudy with Mist and Fog 35 1.7 33 0.6 93 93 NNE 17 28 29.86 1011 4 6 0.00 0.00
4:04 am 04:04 Cloudy with Light Rain 35 1.7 33 0.6 93 93 NNE 13 20 29.91 1013 3 5 0.00 0.03
4:45 am 04:45 Cloudy with Mist and Fog 36 2.2 33 0.6 89 89 NNE 14 22 29.91 1013 6 10 0.00 0.03
4:53 am 04:53 Cloudy with Mist and Fog 36 2.2 33 0.6 89 89 N 15 24 29.87 1011 6 10 0.00 0.03
5:53 am 05:53 Cloudy 35 1.7 32 0 89 89 N 18 30 29.89 1012 10 16 0.00 0.00
6:53 am 06:53 Cloudy with Light Rain 34 1.1 31 -0.6 89 89 N 15 24 29.92 1013 8 13 0.00 0.03
7:09 am 07:09 Cloudy 34 1.1 31 -0.6 89 89 N 17 28 29.97 1015 10 16 0.00 0.03
7:53 am 07:53 Cloudy 34 1.1 31 -0.6 89 89 N 13 20 29.95 1014 10 16 0.00 0.03
8:20 am 08:20 Cloudy 34 1.1 31 -0.6 89 89 N 14 22 30.00 1016 10 16 0.00 0.00
8:53 am 08:53 Cloudy 34 1.1 31 -0.6 89 89 N 15 24 29.97 1015 10 16 0.00 0.00
9:53 am 09:53 Cloudy with Light Snow 34 1.1 31 -0.6 89 89 N 13 20 29.99 1016 5 8 0.00 0.03
10:30 am 10:30 Cloudy with Light Snow 34 1.1 30 -1.1 85 85 NNW 16 26 30.06 1018 3 4 0.01 0.25
10:48 am 10:48 Cloudy with Light Snow 36 2 30 -1 81 81 NNW 17 28 30.06 1018 3 5 0.01 0.25
10:53 am 10:53 Cloudy with Light Snow 35 1.7 31 -0.6 85 85 NNW 15 24 30.02 1017 3 5 0.01 0.25
11:34 am 11:34 Cloudy with Light Snow 35 1.7 31 -0.6 85 85 NNW 16 26 30.09 1019 2 3 0.00 0.03
11:39 am 11:39 Cloudy with Light Snow 35 1.7 31 -0.6 85 85 NNW 17 28 30.09 1019 1 2 0.00 0.03
11:53 am 11:53 Cloudy with Light Snow 34 1.1 31 -0.6 89 89 NNW 17 28 30.04 1017 1 2 0.00 0.03
12:11 pm 12:11 Cloudy with Light Snow 34 1.1 31 -0.6 89 89 NNW 16 26 30.09 1019 1 2 0.01 0.25
12:33 pm 12:33 Cloudy with Light Snow 35 1.7 32 0 89 89 NNW 16 26 30.09 1019 2 2 0.02 0.51
12:40 pm 12:40 Cloudy with Light Snow 35 1.7 32 0 89 89 N 17 28 30.09 1019 2 3 0.02 0.51
12:53 pm 12:53 Cloudy with Light Snow 36 2.2 32 0 86 86 NNW 13 20 30.04 1017 3 5 0.02 0.51
1:29 pm 13:29 Cloudy with Light Snow 36 2.2 32 0 86 86 NNW 17 28 30.09 1019 4 6 0.00 0.03
1:43 pm 13:43 Cloudy with Light Rain 37 2.8 33 0.6 86 86 N 18 30 30.06 1018 9 14 0.00 0.03
1:53 pm 13:53 Cloudy with Light Snow 36 2.2 32 0 86 86 NNW 18 30 30.04 1017 5 8 0.00 0.03
2:14 pm 14:14 Windy with Snow Likely 37 2.8 32 0 82 82 NNW 21 33 30.06 1018 5 8 0.00 0.03
2:53 pm 14:53 Cloudy with Light Snow 36 2.2 32 0 86 86 NNW 18 30 30.04 1017 7 11 0.00 0.03
3:46 pm 15:46 Cloudy with Light Snow 36 2.2 32 0 86 86 NNW 16 26 30.09 1019 3 4 0.01 0.25
3:53 pm 15:53 Cloudy with Light Snow 35 1.7 31 -0.6 85 85 N 16 26 30.05 1018 2 3 0.01 0.25
4:00 pm 16:00 Cloudy with Light Snow 36 2.2 32 0 86 86 NNW 15 24 30.09 1019 3 5 0.00 0.03
4:03 pm 16:03 Cloudy with Light Snow 36 2.2 32 0 86 86 NNW 16 26 30.09 1019 3 4 0.00 0.03
4:07 pm 16:07 Cloudy with Light Snow 36 2.2 32 0 86 86 NNW 13 20 30.09 1019 3 5 0.00 0.03
4:16 pm 16:16 Cloudy with Light Snow 35 1.7 31 -0.6 85 85 NNW 15 24 30.09 1019 2 3 0.00 0.03
4:24 pm 16:24 Cloudy with Light Snow 36 2.2 32 0 86 86 NNW 15 24 30.09 1019 2 3 0.00 0.03
4:34 pm 16:34 Cloudy with Light Snow 35 1.7 31 -0.6 85 85 NNW 18 30 30.09 1019 2 2 0.00 0.03
4:53 pm 16:53 Cloudy with Light Snow 35 1.7 32 0 89 89 NNW 16 26 30.06 1018 2 2 0.00 0.03
5:14 pm 17:14 Windy with Snow Likely 35 1.7 31 -0.6 85 85 NNW 20 31 30.09 1019 3 4 0.01 0.25
5:38 pm 17:38 Cloudy with Light Snow 35 1.7 31 -0.6 85 85 NNW 17 28 30.12 1020 3 5 0.01 0.25
5:53 pm 17:53 Cloudy with Light Rain 35 1.7 30 -1.1 82 82 NNW 16 26 30.07 1018 7 11 0.01 0.25
6:24 pm 18:24 Cloudy with Light Snow 35 1.7 31 -0.6 85 85 NNW 14 22 30.12 1020 4 6 0.00 0.03
6:53 pm 18:53 Cloudy 34 1.1 28 -2.2 79 79 N 17 28 30.09 1019 10 16 0.00 0.03
7:29 pm 19:29 Cloudy 34 1.1 29 -1.7 82 82 NNW 12 19 30.12 1020 10 16 0.00 0.00
7:41 pm 19:41 Cloudy 34 1.1 28 -2.2 79 79 NNW 13 20 30.12 1020 10 16 0.00 0.00
7:53 pm 19:53 Cloudy 33 0.6 29 -1.7 85 85 NNW 9 15 30.10 1019 10 16 0.00 0.00
8:03 pm 20:03 Cloudy 33 0.6 29 -1.7 85 85 NNW 13 20 30.18 1022 10 16 0.00 0.00
8:36 pm 20:36 Cloudy 33 0.6 28 -2.2 82 82 NNW 9 15 30.18 1022 10 16 0.00 0.00
8:53 pm 20:53 Cloudy 32 0 28 -2.2 85 85 NNW 10 17 30.11 1020 10 16 0.00 0.00
9:48 pm 21:48 Mostly Cloudy 30 -1 27 -3 86 86 NW 6 9 30.18 1022 10 16 0.00 0.00
9:53 pm 21:53 Mostly Cloudy 31 -0.6 27 -2.8 85 85 NW 7 11 30.12 1020 10 16 0.00 0.00
10:13 pm 22:13 Partly Cloudy 31 -0.6 26 -3.3 82 82 NNW 12 19 30.18 1022 10 16 0.00 0.00
10:53 pm 22:53 Clear 30 -1.1 24 -4.4 79 79 NNW 10 17 30.12 1020 10 16 0.00 0.00
11:53 pm 23:53 Clear 25 -3.9 21 -6.1 85 85 NW 5 7 30.14 1021 10 16 0.00 0.00

Powered by AerisWeather